Satellite-Ground Cal/Val Region Overpasses Predictions

Prediction of Satellite NPP Overpassing Cal/Val Region: PacNW

Region Location: (Latitude: 10.00, Longitude: 139.50) to (Latitude: 22.70, Longitude: 165.60).

Table of predicted overpasses for the next 14.0 days since TLE Epoch: 5/11/2019
Interval Starting Time Starting Location Ending Time Ending Location
1 05/12/2019 03:17:15 ( 10.04, 150.36) 05/12/2019 03:20:50 ( 22.66, 147.36)
2 05/12/2019 15:49:08 ( 22.64, 147.59) 05/12/2019 15:52:43 ( 10.02, 144.59)
3 05/13/2019 02:58:13 ( 10.03, 155.12) 05/13/2019 03:01:48 ( 22.65, 152.12)
4 05/13/2019 15:30:07 ( 22.65, 152.35) 05/13/2019 15:33:42 ( 10.03, 149.35)
5 05/14/2019 02:39:12 ( 10.02, 159.88) 05/14/2019 02:42:48 ( 22.70, 156.86)
6 05/14/2019 15:11:05 ( 22.66, 157.11) 05/14/2019 15:14:40 ( 10.04, 154.10)
7 05/15/2019 02:20:10 ( 10.01, 164.64) 05/15/2019 02:23:46 ( 22.69, 161.62)
8 05/15/2019 14:52:04 ( 22.67, 161.87) 05/15/2019 14:55:39 ( 10.05, 158.86)
9 05/16/2019 03:42:39 ( 10.01, 144.02) 05/16/2019 03:46:15 ( 22.69, 141.00)
10 05/16/2019 14:34:14 ( 18.46, 165.59) 05/16/2019 14:36:37 ( 10.06, 163.62)
11 05/16/2019 16:14:32 ( 22.67, 141.25) 05/16/2019 16:16:34 ( 15.52, 139.51)
12 05/17/2019 03:23:38 ( 10.06, 148.76) 05/17/2019 03:27:13 ( 22.68, 145.76)
13 05/17/2019 15:55:31 ( 22.68, 146.01) 05/17/2019 15:59:07 ( 10.00, 142.99)
14 05/18/2019 03:04:37 ( 10.05, 153.52) 05/18/2019 03:08:12 ( 22.67, 150.52)
15 05/18/2019 15:36:29 ( 22.69, 150.76) 05/18/2019 15:40:05 ( 10.01, 147.75)
16 05/19/2019 02:45:35 ( 10.04, 158.28) 05/19/2019 02:49:10 ( 22.67, 155.27)
17 05/19/2019 15:17:28 ( 22.70, 155.52) 05/19/2019 15:21:04 ( 10.02, 152.51)
18 05/20/2019 02:26:34 ( 10.04, 163.03) 05/20/2019 02:30:09 ( 22.66, 160.03)
19 05/20/2019 14:58:28 ( 22.64, 160.27) 05/20/2019 15:02:03 ( 10.03, 157.26)
20 05/21/2019 02:10:11 ( 19.37, 165.60) 05/21/2019 02:11:07 ( 22.65, 164.79)
21 05/21/2019 03:49:02 ( 10.03, 142.42) 05/21/2019 03:52:31 ( 22.31, 139.50)
22 05/21/2019 14:39:26 ( 22.65, 165.02) 05/21/2019 14:43:01 ( 10.03, 162.02)
23 05/21/2019 16:20:56 ( 22.65, 139.65) 05/21/2019 16:21:06 ( 22.06, 139.50)
24 05/22/2019 03:30:01 ( 10.03, 147.17) 05/22/2019 03:33:36 ( 22.65, 144.17)
25 05/22/2019 16:01:55 ( 22.65, 144.41) 05/22/2019 16:05:30 ( 10.03, 141.40)
26 05/23/2019 03:10:59 ( 10.02, 151.93) 05/23/2019 03:14:34 ( 22.65, 148.93)
27 05/23/2019 15:42:53 ( 22.66, 149.16) 05/23/2019 15:46:28 ( 10.04, 146.16)
28 05/24/2019 02:51:58 ( 10.02, 156.69) 05/24/2019 02:55:33 ( 22.64, 153.68)
29 05/24/2019 15:23:52 ( 22.66, 153.92) 05/24/2019 15:27:27 ( 10.05, 150.92)
30 05/25/2019 02:32:56 ( 10.02, 161.45) 05/25/2019 02:36:32 ( 22.70, 158.43)


NCC Satellite Cal/Val Overpasses Prediction Service
